Tracking 23610 objects as of 20-Sep-2021
HD Live streaming from Space Station
objects crossing your sky now

STARLINK-2466

Track STARLINK-2466 now!
10-day predictions
STARLINK-2466 is classified as:


NORAD ID: 48125
Int'l Code: 2021-027AK
Perigee: 554.0 km
Apogee: 554.7 km
Inclination: 53.1 °
Period: 95.6 minutes
Semi major axis: 6925 km
RCS: Unknown
Launch date: April 7, 2021
Source: United States (US)
Launch site: AIR FORCE EASTERN TEST RANGE (AFETR)
aabbcc
Your satellite tracking list
Your tracking list is empty




NASA's NSSDC Master Catalog

Two Line Element Set (TLE):
1 48125U 21027AK  21262.83869519 -.00001067  00000-0 -52774-4 0  9999
2 48125  53.0557 297.2720 0000532 125.4200 234.6838 15.06395680 26465
Source of the keplerian elements: AFSPC